Location: Boissi�res
(45.2500°N, 2.3667°E)
Time: 12:10:02
(UTC+00:00)

Cosmos 2333 Rocket - Pass Details

Date: 03 March 2021
Orbit: 837 x 864 km, 70.8° (Epoch: 18 April)

Event Time Altitude Azimuth Distance (km) Brightness Sun altitude
Rises 20:29:56 0° 222° (SW) 3,390 5.6 -30.0°
Reaches altitude 10° 20:32:27 10° 228° (SW) 2,462 4.9 -30.4°
Maximum altitude 20:37:54 48° 302° (WNW) 1,101 3.0 -31.3°
Drops below altitude 10° 20:43:26 10° 17° (NNE) 2,494 4.7 -32.2°
Sets 20:46:01 0° 23° (NNE) 3,439 5.4 -32.6°
